Weather History for Pella, IA

Change the Weather History Date:

Monday, December 16, 2013

  Actual Average (KOXV) Record (KOXV)
Temperature  
Mean Temperature 18 °F -  
Max Temperature 25 °F 34 °F 62 °F (2006)
Min Temperature 12 °F 19 °F -15 °F (1951)
Degree Days  
Heating Degree Days 46    
Moisture  
Dew Point 15 °F    
Average Humidity 85    
Maximum Humidity 93    
Minimum Humidity 80    
Precipitation  
Precipitation 0.00 in - - ()
Sea Level Pressure  
Sea Level Pressure 30.06 in    
Wind  
Wind Speed 5 mph (SSE)    
Max Wind Speed 9 mph    
Max Gust Speed -    
Visibility 7 miles    
Events      
Averages and records for this station are not official NWS values.
T = Trace of Precipitation, MM = Missing Value Source: NWS Daily Summary

Daily Weather History Graph

Daily Weather History Graph

Search for Another Location

Airport:

Trip Planner

Search our weather history database for the weather conditions in past years. The results will help you decide how hot, cold, wet, or windy it might be!

Date:

Astronomy

Dec. 16, 2013 Rise Set
Actual Time 7:31 AM CST 4:43 PM CST
Civil Twilight 7:00 AM CST 5:14 PM CST
Nautical Twilight 6:25 AM CST 5:49 PM CST
Astronomical Twilight 5:51 AM CST 6:23 PM CST
Moon 4:34 PM CST (12/16) 6:39 AM CST (12/16)
Length of Visible Light 10h 14m
Length of Day
9h 11m
Full, 100% of the Moon is Illuminated
Dec 16
Full
Dec 17
Full
Dec 25
Last Quarter
Jan 1
New
Jan 7
First Quarter

Hourly Weather History & Observations

Time (CST) Temp. Windchill Dew Point Humidity Pressure Visibility Wind Dir Wind Speed Gust Speed Precip Events Conditions
12:15 AM 12.9 °F 3.8 °F 8.6 °F 83% 30.06 in 10.0 mi ENE 5.8 mph - N/A   Overcast
12:35 AM 13.1 °F 4.0 °F 9.0 °F 84% 30.07 in 10.0 mi East 5.8 mph - N/A   Overcast
12:55 AM 12.9 °F 6.9 °F 8.6 °F 83% 30.07 in 10.0 mi ENE 3.5 mph - N/A   Overcast
1:15 AM 12.9 °F 6.9 °F 8.8 °F 84% 30.07 in 10.0 mi East 3.5 mph - N/A   Overcast
1:35 AM 12.9 °F 5.2 °F 8.6 °F 83% 30.07 in 10.0 mi East 4.6 mph - N/A   Overcast
1:55 AM 13.1 °F 5.4 °F 9.0 °F 84% 30.07 in 10.0 mi East 4.6 mph - N/A   Overcast
2:15 AM 13.1 °F 5.4 °F 9.0 °F 84% 30.07 in 10.0 mi East 4.6 mph - N/A   Overcast
2:35 AM 13.1 °F 2.8 °F 9.0 °F 84% 30.08 in 10.0 mi East 6.9 mph - N/A   Overcast
2:55 AM 13.6 °F 4.6 °F 9.5 °F 84% 30.08 in 10.0 mi ESE 5.8 mph - N/A   Overcast
3:15 AM 13.6 °F 7.7 °F 9.5 °F 84% 30.08 in 10.0 mi East 3.5 mph - N/A   Overcast
3:35 AM 13.6 °F 3.5 °F 9.5 °F 84% 30.08 in 10.0 mi ESE 6.9 mph - N/A   Overcast
3:55 AM 13.6 °F 3.5 °F 9.5 °F 84% 30.07 in 10.0 mi ESE 6.9 mph - N/A   Overcast
4:15 AM 13.8 °F 3.7 °F 9.9 °F 84% 30.06 in 10.0 mi ESE 6.9 mph - N/A   Overcast
4:35 AM 14.0 °F 6.5 °F 10.0 °F 84% 30.06 in 10.0 mi ESE 4.6 mph - N/A   Overcast
4:55 AM 14.0 °F - 10.0 °F 84% 30.06 in 10.0 mi Calm Calm - N/A   Overcast
5:15 AM 14.0 °F - 10.2 °F 85% 30.07 in 10.0 mi Calm Calm - N/A   Overcast
5:35 AM 14.0 °F 8.2 °F 10.2 °F 85% 30.06 in 10.0 mi ESE 3.5 mph - N/A   Overcast
5:55 AM 14.0 °F - 10.4 °F 86% 30.07 in 10.0 mi Calm Calm - N/A   Overcast
6:15 AM 14.0 °F 8.2 °F 10.4 °F 86% 30.07 in 10.0 mi ESE 3.5 mph - N/A   Overcast
6:35 AM 14.4 °F 5.5 °F 10.4 °F 84% 30.07 in 10.0 mi ESE 5.8 mph - N/A   Overcast
6:55 AM 14.5 °F 5.7 °F 10.6 °F 84% 30.07 in 10.0 mi SE 5.8 mph - N/A   Overcast
7:15 AM 14.5 °F 7.1 °F 10.8 °F 85% 30.06 in 7.0 mi SE 4.6 mph - N/A   Overcast
7:35 AM 14.7 °F 4.8 °F 11.1 °F 86% 30.04 in 7.0 mi SE 6.9 mph - N/A   Overcast
7:55 AM 14.9 °F 4.0 °F 11.1 °F 85% 30.04 in 7.0 mi SE 8.1 mph - N/A   Overcast
8:15 AM 15.3 °F 7.9 °F 11.3 °F 84% 30.05 in 7.0 mi SE 4.6 mph - N/A   Overcast
8:35 AM 15.6 °F 5.9 °F 11.7 °F 84% 30.06 in 7.0 mi SE 6.9 mph - N/A   Overcast
8:55 AM 15.8 °F 6.1 °F 11.7 °F 84% 30.06 in 7.0 mi SE 6.9 mph - N/A   Overcast
9:15 AM 16.2 °F 6.5 °F 11.7 °F 82% 30.07 in 5.0 mi SSE 6.9 mph - N/A   Overcast
9:35 AM 16.7 °F 8.3 °F 12.2 °F 82% 30.07 in 7.0 mi SSE 5.8 mph - N/A   Overcast
9:55 AM 17.4 °F 8.0 °F 12.6 °F 81% 30.06 in 5.0 mi SE 6.9 mph - N/A   Haze
10:15 AM 18.1 °F 10.0 °F 13.5 °F 82% 30.06 in 5.0 mi SSE 5.8 mph - N/A   Haze
10:35 AM 18.3 °F 10.2 °F 13.5 °F 81% 30.05 in 5.0 mi SSE 5.8 mph - N/A   Haze
10:55 AM 18.7 °F 10.6 °F 13.8 °F 81% 30.04 in 5.0 mi SSE 5.8 mph - N/A   Haze
11:15 AM 20.1 °F 10.3 °F 15.1 °F 81% 30.03 in 5.0 mi South 8.1 mph - N/A   Haze
11:35 AM 20.3 °F 12.5 °F 15.6 °F 82% 30.03 in 5.0 mi SE 5.8 mph - N/A   Haze
11:55 AM 21.0 °F 13.4 °F 15.8 °F 80% 30.03 in 4.0 mi SSE 5.8 mph - N/A   Haze
12:15 PM 21.7 °F 13.2 °F 17.1 °F 82% 30.01 in 4.0 mi South 6.9 mph - N/A   Haze
12:35 PM 22.1 °F 14.7 °F 17.8 °F 83% 30.00 in 4.0 mi SSW 5.8 mph - N/A   Overcast
12:55 PM 22.1 °F 14.7 °F 18.3 °F 85% 30.00 in 3.0 mi SSW 5.8 mph - N/A   Overcast
1:15 PM 22.6 °F 15.3 °F 18.7 °F 85% 30.00 in 3.0 mi SSW 5.8 mph - N/A   Overcast
1:35 PM 22.6 °F 13.4 °F 19.0 °F 86% 29.99 in 3.0 mi SW 8.1 mph - N/A   Overcast
1:55 PM 22.6 °F 13.4 °F 19.2 °F 87% 29.99 in 3.0 mi SW 8.1 mph - N/A   Overcast
2:15 PM 22.8 °F 15.5 °F 19.4 °F 87% 29.99 in 3.0 mi WSW 5.8 mph - N/A   Overcast
2:35 PM 23.7 °F 16.6 °F 20.1 °F 86% 29.99 in 3.0 mi SW 5.8 mph - N/A   Overcast
2:55 PM 23.9 °F 14.2 °F 20.3 °F 86% 30.01 in 3.0 mi West 9.2 mph - N/A   Overcast
3:15 PM 24.4 °F 20.1 °F 20.5 °F 85% 30.03 in 4.0 mi WNW 3.5 mph - N/A   Overcast
3:35 PM 24.8 °F 16.9 °F 21.0 °F 86% 30.04 in 4.0 mi NW 6.9 mph - N/A   Overcast
3:55 PM 25.3 °F 16.7 °F 21.2 °F 84% 30.05 in 4.0 mi NW 8.1 mph - N/A   Overcast
4:15 PM 25.3 °F 17.6 °F 21.2 °F 84% 30.05 in 4.0 mi NW 6.9 mph - N/A   Overcast
4:35 PM 24.4 °F - 20.3 °F 84% 30.06 in 4.0 mi Calm Calm - N/A   Overcast
4:55 PM 23.0 °F - 19.4 °F 86% 30.06 in 4.0 mi Calm Calm - N/A   Mostly Cloudy
5:15 PM 22.5 °F 14.1 °F 19.8 °F 89% 30.06 in 5.0 mi NW 6.9 mph - N/A   Mostly Cloudy
5:35 PM 22.1 °F - 19.4 °F 89% 30.06 in 5.0 mi Calm Calm - N/A   Mostly Cloudy
5:55 PM 21.2 °F - 19.0 °F 91% 30.08 in 5.0 mi Calm Calm - N/A   Scattered Clouds
6:15 PM 20.3 °F - 18.3 °F 92% 30.08 in 4.0 mi Calm Calm - N/A   Mostly Cloudy
6:35 PM 20.3 °F - 18.7 °F 93% 30.08 in 4.0 mi Calm Calm - N/A   Mostly Cloudy
6:55 PM 20.8 °F 13.2 °F 19.2 °F 93% 30.08 in 4.0 mi NW 5.8 mph - N/A   Scattered Clouds
7:15 PM 21.6 °F 14.0 °F 19.8 °F 93% 30.09 in 4.0 mi WNW 5.8 mph - N/A   Scattered Clouds
7:35 PM 21.9 °F 11.7 °F 20.1 °F 93% 30.10 in 4.0 mi NW 9.2 mph - N/A   Scattered Clouds
7:55 PM 21.7 °F 11.5 °F 19.0 °F 89% 30.11 in 5.0 mi NW 9.2 mph - N/A   Scattered Clouds
8:15 PM 21.6 °F 11.3 °F 17.8 °F 85% 30.11 in 7.0 mi NW 9.2 mph - N/A   Clear
8:35 PM 21.9 °F 12.5 °F 17.4 °F 83% 30.10 in 10.0 mi NNW 8.1 mph - N/A   Clear
8:55 PM 21.2 °F 12.6 °F 17.1 °F 84% 30.11 in 10.0 mi WNW 6.9 mph - N/A   Clear
9:15 PM 21.2 °F 13.6 °F 17.4 °F 85% 30.11 in 10.0 mi WNW 5.8 mph - N/A   Clear
9:35 PM 21.9 °F 17.2 °F 17.6 °F 83% 30.11 in 10.0 mi WNW 3.5 mph - N/A   Clear
9:55 PM 22.1 °F 14.7 °F 18.0 °F 84% 30.10 in 10.0 mi WNW 5.8 mph - N/A   Clear
10:15 PM 22.1 °F 17.4 °F 18.3 °F 85% 30.11 in 10.0 mi WNW 3.5 mph - N/A   Clear
10:35 PM 22.8 °F 15.5 °F 18.5 °F 83% 30.13 in 10.0 mi NW 5.8 mph - N/A   Clear
10:55 PM 23.0 °F - 18.9 °F 84% 30.12 in 10.0 mi Calm Calm - N/A   Clear
11:15 PM 23.5 °F - 18.9 °F 82% 30.11 in 10.0 mi Calm Calm - N/A   Clear
11:55 PM 23.7 °F 17.8 °F 19.0 °F 82% 30.11 in 10.0 mi West 4.6 mph - N/A   Clear